TimeWEST,TemperatureF,Dew PointF,Humidity,Sea Level PressureIn,VisibilityMPH,Wind Direction,Wind SpeedMPH,Gust SpeedMPH,PrecipitationIn,Events,Conditions,WindDirDegrees,DateUTC
12:00 AM,78.8,53.6,42,30.09,-9999.0,Calm,Calm,-,N/A,,Clear,0,2013-08-20 23:00:00
1:00 AM,76,53,34,30.00,6,Calm,Calm,,,,,,2013-08-21 00:00:00
1:00 AM,75.2,53.6,47,30.09,-9999.0,Calm,Calm,-,N/A,,Clear,0,2013-08-21 00:00:00
2:00 AM,73.4,53.6,50,30.09,-9999.0,Calm,Calm,-,N/A,,Clear,0,2013-08-21 01:00:00
3:00 AM,71.6,53.6,53,30.06,-9999.0,Calm,Calm,-,N/A,,Clear,0,2013-08-21 02:00:00
4:00 AM,68.0,50.0,52,30.06,-9999.0,SE,4.6,-,N/A,,Clear,130,2013-08-21 03:00:00
5:00 AM,68.0,50.0,52,30.06,-9999.0,Calm,Calm,-,N/A,,Clear,0,2013-08-21 04:00:00
6:00 AM,68.0,48.2,49,30.06,-9999.0,Calm,Calm,-,N/A,,Clear,0,2013-08-21 05:00:00
7:00 AM,69,48,36,30.01,6,Calm,Calm,,,,,,2013-08-21 06:00:00
7:00 AM,68.0,48.2,49,30.06,-9999.0,Calm,Calm,-,N/A,,Clear,0,2013-08-21 06:00:00
8:00 AM,73.4,50.0,44,30.09,-9999.0,Calm,Calm,-,N/A,,Clear,0,2013-08-21 07:00:00
9:00 AM,80.6,46.4,30,30.09,-9999.0,NE,2.3,-,N/A,,Clear,40,2013-08-21 08:00:00
10:00 AM,85,46,16,29.98,6,NE,2.3,,,,,40,2013-08-21 09:00:00
10:00 AM,84.2,46.4,27,30.09,-9999.0,NE,2.3,-,N/A,,Clear,40,2013-08-21 09:00:00
11:00 AM,89.6,48.2,24,30.09,-9999.0,NNW,3.5,-,N/A,,Clear,330,2013-08-21 10:00:00
12:00 PM,91.4,50.0,24,30.09,-9999.0,NW,4.6,-,N/A,,Clear,320,2013-08-21 11:00:00
1:00 PM,93,51,15,29.94,6,NW,6.9,,,,Clear,320,2013-08-21 12:00:00
1:00 PM,93.2,50.0,23,30.09,-9999.0,NW,6.9,-,N/A,,Clear,320,2013-08-21 12:00:00
2:00 PM,95.0,48.2,20,30.06,-9999.0,NNW,6.9,-,N/A,,Clear,340,2013-08-21 13:00:00
3:00 PM,96.8,50.0,20,30.06,-9999.0,North,5.8,-,N/A,,Clear,360,2013-08-21 14:00:00
4:00 PM,96,46,10,29.88,6,NNW,6.9,,,,,340,2013-08-21 15:00:00
4:00 PM,96.8,46.4,18,30.04,-9999.0,NNW,6.9,-,N/A,,Clear,340,2013-08-21 15:00:00
5:00 PM,96.8,42.8,16,30.04,-9999.0,NW,4.6,-,N/A,,Clear,320,2013-08-21 16:00:00
6:00 PM,96.8,41.0,15,30.01,-9999.0,NW,5.8,-,N/A,,Clear,320,2013-08-21 17:00:00
7:00 PM,93,47,12,29.87,6,NW,10.4,,,,Clear,320,2013-08-21 18:00:00
7:00 PM,93.2,46.4,20,30.01,-9999.0,NNW,6.9,-,N/A,,Clear,340,2013-08-21 18:00:00
8:00 PM,87.8,60.8,40,30.01,-9999.0,NW,8.1,-,N/A,,Clear,310,2013-08-21 19:00:00
9:00 PM,80.6,60.8,51,30.04,-9999.0,West,4.6,-,N/A,,Clear,270,2013-08-21 20:00:00
10:00 PM,80,62,44,29.95,6,West,4.6,,,,Clear,270,2013-08-21 21:00:00
10:00 PM,80.6,62.6,54,30.06,-9999.0,West,4.6,-,N/A,,Clear,270,2013-08-21 21:00:00
11:00 PM,78.8,60.8,54,30.06,-9999.0,West,3.5,-,N/A,,Clear,270,2013-08-21 22:00:00